User: anonymous   Login
Location: Boitzum
(52.1496°N, 9.6943°E)
Time: 11:26:32
(UTC+00:00)
Language:

Cosmos 1763 Rocket - Orbit

View from above orbital plane
View from above orbital plane
View from above satellite
View from above satellite

Ground track
Ground track

The orbit is defined by the following mean orbital elements,

1 16864U          26066.16633161 +.00000000 +00000-0 +10611-3 0 00007
2 16864  74.0296 317.2640 0032008 352.7036   7.3650 14.42272847    09
Epoch (UTC): 07 March 2026 03:59:31
Eccentricity: 0.0032008
inclination: 74.0296°
perigee height: 728 km
apogee height: 774 km
right ascension of ascending node: 317.2640°
argument of perigee: 352.7036°
revolutions per day: 14.42272847
mean anomaly at epoch: 7.3650°

The dashed part of the orbit path shows where the satellite is in the earth's shadow,  

DLR